ELECTRON R/B

Last updated on Nov. 30, 2020, 12:02 a.m. UTC

1 46930U 20085B   20334.84102658  .08233876  20632-5  56223-3 0  9999
2 46930  97.3562 110.4046 0058285 187.1761 173.4921 16.32016431  1556

Satellite is not in orbit.